www.pogodaiklimat.ru

Погода и климат >> Архив погоды >> Гана >> Тамале


ПОГОДА в Тамале

  • Прогноз погоды в Тамале
  • Монитор погоды в Тамале

АРХИВ ПОГОДЫ в Тамале

Время (UTC), дата Ветер
(напр.,м/с)
 
Видим.   Явления Облачность Т
(С)
Тd
(С)
f
(%)
Тe
(С)
Тes
(С)
Комфортность P
(гПа)
Po
(гПа)
Тmin
(С)
Tmax
(С)
R
(мм)
R24
(мм)
S
(см)
21 17.05 ЮЗ 3 16 км гроза без осадков 8/4 900 м
[Cb cap Ac trans Ci sp]
+26.5 +20.0 68 +33 +33 очень
душно
1009.6 989.9
06 18.05 ЮЗ 1 16 км 8/0
[Ac trans Cs]
+26.0 +23.9 88 +36 +36 очень
душно
1009.5 989.7 +26.0 2
12 18.05 ЮЗ 4 18 км 8/6 420 м
[Cu med, cong Ac trans Ci sp]
+32.5 +25.0 65 +46 +50 опасность
перегрева
1010.5 991.1
18 18.05 ЮЗ 3 28 км 6/4 360 м
[Cb cap Ac trans]
+33.2 +24.8 61 +46 +46 опасность
перегрева
1007.6 988.3 +35.0
21 18.05 ЮЗ 1 14 км 4/0
[Ac trans]
+31.5 +24.2 65 +43 +43 опасность
перегрева
1009.5 990.1
00 19.05 ЮЗ 1 14 км ясно +30.0 +25.5 77 +44 +44 опасность
перегрева
1010.5 991.0
06 19.05 Ю 3 14 км 5/3 360 м
[Sc Ac trans Ci sp]
+28.5 +25.4 83 +42 +42 опасность
перегрева
1009.5 989.9 +28.2
09 19.05 ЮЗ 3 18 км 5/5 400 м
[Cu med, cong]
+31.2 +24.8 69 +44 +49 опасность
перегрева
1010.4 991.0
12 19.05 ЮЗ 4 18 км 9/8 400 м
[Cu Sc Ac trans]
+34.5 +24.4 56 +47 +49 опасность
перегрева
1009.4 990.2
15 19.05 Ю 4 20 км 8/8 360 м
[Cb cap]
+35.4 +23.3 50 +46 +48 опасность
перегрева
1007.1 988.0
18 19.05 Ю 4 18 км 8/5 330 м
[Cb cap Ac trans Cs]
+34.4 +22.7 51 +44 +44 опасность
перегрева
1006.6 987.4 +35.9
21 19.05 ЮЗ 3 16 км зарница 6/1 330 м
[Cb cap Ac trans Cs]
+32.0 +24.0 63 +44 +44 опасность
перегрева
1009.5 990.1
00 20.05 ЮЗ 3 16 км 10/0
[Cs]
+30.5 +23.7 67 +42 +42 опасность
перегрева
1010.5 991.0
06 20.05 ЮЗ 4 17 км {гроза} 9/6 330 м
[Cb cap Ac trans Cs]
+28.0 +24.8 83 +40 +40 очень
душно
1010.6 991.0 +28.0
21 20.05 ЮВ 5 15 км зарница 9/1 300 м
[Cb cap Ac trans]
+26.5 +21.1 72 +33 +33 очень
душно
1011.9 992.1
00 21.05 Ю 3 15 км 9/3 330 м
[Sc Cs]
+26.5 +21.4 74 +34 +34 очень
душно
1011.4 991.6
03 21.05 ЮВ 2 15 км 9/0
[Ac trans Cs]
+25.5 +21.6 79 +33 +33 очень
душно
1010.4 990.6
09 21.05 ЮВ 3 18 км 8/0
[Ac trans Cs]
+28.8 +22.5 69 +38 +44 очень
душно
1012.5 992.9
12 21.05 ЮВ 2 20 км 8/1 480 м
[Cu med, cong Ac trans Cs]
+36.0 +23.5 49 +47 +60 опасность
перегрева
1011.5 992.3
15 21.05 ЮВ 3 20 км 8/3 480 м
[Cu med, cong Cs]
+33.5 +22.5 53 +43 +49 опасность
перегрева
1008.6 989.3
18 21.05 ЮВ 1 20 км 8/1 400 м
[Sc Ac trans Ci sp]
+32.7 +22.9 56 +43 +43 опасность
перегрева
1007.7 988.4 +34.5
21 21.05 Ю 1 18 км 6/0
[Cs]
+30.5 +23.4 66 +41 +41 опасность
перегрева
1010.4 990.9
00 22.05 ЮЗ 1 18 км 4/0
[Ci sp]
+29.0 +23.0 70 +39 +39 очень
душно
1010.8 991.2
03 22.05 Ю 1 18 км 8/0
[Cs]
+28.0 +23.7 77 +38 +38 очень
душно
1008.8 989.2
06 22.05 Ю 1 16 км 8/1 400 м
[Sc Ac trans Cs]
+27.4 +23.4 79 +37 +37 очень
душно
1010.9 991.2 +27.4
09 22.05 Ю 3 18 км 9/3 400 м
[Sc Cs]
+29.5 +23.5 70 +40 +46 очень
душно
1012.3 992.7
12 22.05 ЮЗ 3 18 км 8/6 400 м
[Cu Sc Ac trans]
+33.0 +23.5 58 +44 +50 опасность
перегрева
1010.6 991.3
15 22.05 ЮЗ 3 18 км 8/6 360 м
[Cb cap Ac trans]
+34.6 +23.7 53 +46 +49 опасность
перегрева
1007.7 988.5
21 22.05 ЮЗ 1 14 км зарница 4/3 400 м
[Cb cap Ac trans]
+31.5 +23.4 62 +42 +42 опасность
перегрева
1009.5 990.1
09 23.05 СЗ 3 18 км 6/4 400 м
[Cu med, cong Ci sp]
+31.5 +23.9 64 +43 +48 опасность
перегрева
1011.0 991.6
15 23.05 С 7 20 км гроза без осадков 9/8 300 м
[Cb cap Ac trans Ci sp]
+37.0 +21.9 42 +45 +46 опасность
перегрева
1006.7 987.7
18 23.05 ЮВ 4 18 км {гроза} 9/3 330 м
[Cb cap Ac trans]
+35.0 +21.1 44 +42 +42 опасность
перегрева
1006.9 987.8 +37.4
21 23.05 ЮЗ 5 16 км 5/0
[Ac trans]
+32.3 +23.1 58 +42 +42 опасность
перегрева
1009.7 990.3
00 24.05 Ю 5 16 км 6/0
[Ac trans]
+29.1 +21.7 64 +37 +37 очень
душно
1010.3 990.7
06 24.05 ЮЗ 4 17 км 6/0
[Ci sp]
+26.1 +21.4 75 +33 +33 очень
душно
1010.6 990.8 +26.1
09 24.05 ЮЗ 4 28 км 9/0
[Ac trans Cs]
+29.0 +21.4 64 +37 +42 очень
душно
1000.0 980.6
15 24.05 ЮЗ 3 18 км 8/6 330 м
[Cu Sc Ci sp]
+35.5 +21.6 45 +44 +47 опасность
перегрева
1007.2 988.1

 

Местоположение метеостанции Тамале (Гана): широта 9.50 долгота -0.85 высота над уровнем моря 173 м.

В архиве по умолчанию представлена погода в Тамале за последнюю неделю. Архивные данные за месяц целиком и за предыдущие месяцы, начиная с января 2011 года, Вы можете получить, выбрав интересующий диапазон дат из раскрывающегося списка и нажав кнопку "Ввод!".


*Определитесь, кто Вы:
робот инопланетянин человек

Внимание! Время в таблицах - всемирное. Для получения местного времени необходимо прибавить поправку, которая равна 1 ч.

Смотрите также архив погоды в соседних городах и на ближайших метеорологических станциях:

Погода в Йенди (Гана) (91 км)
Погода в Навронго (Гана) (158 км)
Погода в Манго (Того) (174 км)
Погода в Боле (Гана) (186 км)
Погода в По (Буркина-Фасо) (186 км)
Погода в Ва (Гана) (191 км)
Погода в Дапаоне (Того) (201 км)
Погода в Кет-Крачи (Гана) (207 км)
Погода в Ньамтугу (Того) (216 км)
Погода в Каре (Того) (222 км)

Пояснения к столбцам:

Ветер - указаны скорость ветра в м/с - средняя за 10 мин, порывы в срок и между сроками (в фигурных скобках) и направление, откуда дует ветер: С - северный, СВ - северо-восточный, В - восточный, ЮВ - юго-восточный, Ю - южный, ЮЗ - юго-западный, З - западный, СЗ - северо-западный.
Видимость - горизонтальная дальность видимости в метрах или километрах. При видимости от 1 до 10 км при отсутствии осадков обычно наблюдается дымка, при ухудшении видимости до 1 км и менее - туман. В сухую погоду видимость может ухудшаться дымом, пылью или мглою.
Явления - указаны атмосферные явления, наблюдавшиеся в срок или в последний час перед сроком; фигурными скобками обозначены явления, наблюдавшиеся между сроками (за 1-3 часа до срока); квадратными скобками обозначены град или гололедные отложения с указанием их диаметра в мм.
Облачность - указаны через наклонную черту общая и нижняя облачность в баллах и высота нижней границы облаков в метрах; квадратными скобками обозначены формы облаков: Ci - перистые, Cs - перисто-слоистые, Cc - перисто-кучевые, Ac - высококучевые, As - высокослоистые, Sc - слоисто-кучевые, Ns - слоисто-дождевые, Cu - кучевые, Cb - кучево-дождевые. Подробнее классификацию облаков см. в Атласе облаков (PDF).
T - Температура воздуха - температура, измеренная на высоте 2 м над землей.
Td - Температура точки росы - температура, при понижении до которой содержащийся в воздухе водяной пар достигнет насыщения.
f - Относительная влажность воздуха - влажноcть воздуха, измеренная на высоте 2 м над землей.
Te - Эффективная температура - температура, которую ощущает одетый по сезону человек в тени. Характеристика душности погоды. При расчете учитывается влияние влажности воздуха и скорости ветра на теплоощущения человека.
Tes - Эффективная температура на солнце - температура, которую ощущает человек, с поправкой на солнечный нагрев. Характеристика знойности погоды. Зависит от высоты солнца над горизонтом, облачности и скорости ветра. Ночью, в пасмурную погоду, а также при ветре 12 м/с и более поправка равна нулю.
P - Атмосферное давление - приведенное к уровню моря атмосферное давление.
Po - Атмосферное давление - измеренное на уровне метеостанции атмосферное давление.
Tmin - Минимальная температура - минимум температуры воздуха на высоте 2 м над землей.
Tmax - Максимальная температура - максимум температуры воздуха на высоте 2 м над землей.
R - Количество осадков - Количество выпавших осадков за период времени, мм. При наведении курсора мыши на число - период времени, за который выпало указанное количество осадков.
R24 - Количество осадков - Количество выпавших осадков за 24 часа, мм.
S - Снежный покров - Высота снежного покрова, см. При наведении курсора мыши на число - состояние снежного покрова и степень покрытия местности в баллах.